Home > Weather > Bradford > Past weeks

Flag for United Kingdom Past Weather in Bradford, England, United Kingdom — Yesterday and Last 2 Weeks

Now
50 °F

Clear.


Feels Like: 49 °F
Forecast: 51 / 61 °F
Wind: 3 mph from Southwest

Location: Leeds And Bradford

Current Time: Jun 25, 2016 at 2:36:50 AM

Latest Report: Jun 25, 2016 at 1:50 AM


Visibility: 10 mi

Pressure: 30.01 "Hg

Humidity: 94%

Dew Point: 48 °F

Location of BradfordLocation

Past Weather in Bradford — Graph

°F

Bradford Temperature Yesterday

Maximum temperature yesterday: 63 °F (at 9:20 AM)
Minimum temperature yesterday: 52 °F (at 2:20 AM)
Average temperature yesterday: 57 °F

High & Low Weather Summary for the Past Weeks

 TemperatureHumidityPressure
High72 °F (Jun 23, 4:20 PM)100% (Jun 10, 1:50 AM)30.18 "Hg (Jun 10, 1:50 AM)
Low46 °F (Jun 19, 2:50 AM)49% (Jun 21, 12:20 PM)29.36 "Hg (Jun 14, 4:20 PM)
Average56 °F87%29.81 "Hg
* Reported Jun 10 12:20 AM — Jun 25 12:50 AM, Bradford, Weather by CustomWeather, © 2016

Note: Actual official high and low records may vary slightly from our data, if they occured in-between our weather recording intervals... More about our weather records

Advertising

Bradford Weather History for the Previous 24 Hours

Scroll right to see more
 ConditionsComfort  
Time TempWeatherWind HumidityBarometerVisibility
12:50 AM
Sat, Jun 25
52 °FClear.2 mph88%30.01 "Hg10 mi
12:20 AM52 °FClear.3 mph88%30.01 "Hg10 mi
11:50 PM
Fri, Jun 24
54 °FPassing clouds.2 mph88%30.01 "HgN/A
11:20 PM54 °FPassing clouds.3 mph88%30.01 "HgN/A
10:50 PM54 °FPassing clouds.5 mph88%30.01 "HgN/A
10:20 PM55 °FPassing clouds.5 mph82%30.01 "HgN/A
9:50 PM54 °FPassing clouds.3 mph88%29.98 "HgN/A
9:20 PM55 °FPassing clouds.2 mph82%29.98 "HgN/A
8:50 PM57 °FPassing clouds.5 mph82%29.98 "HgN/A
8:20 PM57 °FPassing clouds.6 mph77%29.98 "HgN/A
7:50 PM59 °FPassing clouds.7 mph68%29.98 "HgN/A
7:20 PM61 °FPassing clouds.7 mph63%29.98 "HgN/A
6:50 PM59 °FScattered clouds.7 mph63%29.98 "HgN/A
6:20 PM59 °FScattered clouds.8 mph63%29.98 "HgN/A
5:50 PM61 °FScattered clouds.8 mph59%29.98 "HgN/A
5:20 PM61 °FScattered clouds.8 mph63%29.98 "HgN/A
4:50 PM61 °FScattered clouds.10 mph63%29.98 "HgN/A
4:20 PM59 °FPartly sunny.10 mph72%29.98 "HgN/A
3:50 PM59 °FPartly sunny.15 mph82%29.98 "HgN/A
3:20 PM57 °FSprinkles. Partly sunny.14 mph77%29.98 "HgN/A
2:50 PM61 °FScattered showers. Partly sunny.7 mph68%29.98 "HgN/A
2:20 PM59 °FScattered clouds.12 mph72%29.98 "HgN/A
1:50 PM57 °FScattered clouds.8 mph77%29.98 "HgN/A
1:20 PM57 °FSprinkles. Scattered clouds.16 mph72%29.98 "HgN/A
12:50 PM63 °FScattered clouds.10 mph64%29.98 "HgN/A
12:20 PM63 °FScattered clouds.13 mph64%29.98 "HgN/A
11:50 AM61 °FScattered clouds.13 mph63%29.98 "HgN/A
11:20 AM63 °FScattered clouds.12 mph64%29.95 "HgN/A
10:50 AM63 °FScattered clouds.10 mph64%29.95 "HgN/A
10:20 AM61 °FScattered clouds.10 mph68%29.95 "HgN/A
9:50 AM63 °FScattered clouds.10 mph68%29.95 "HgN/A
9:20 AM63 °FScattered clouds.8 mph68%29.95 "HgN/A
8:50 AM59 °FScattered clouds.7 mph72%29.95 "HgN/A
8:20 AM57 °FScattered clouds.9 mph77%29.95 "HgN/A
7:50 AM57 °FPassing clouds.8 mph82%29.95 "HgN/A
7:20 AM57 °FPassing clouds.8 mph82%29.95 "HgN/A
6:50 AM55 °FPassing clouds.5 mph88%29.95 "HgN/A
6:20 AM54 °FPassing clouds.7 mph94%29.95 "HgN/A
5:50 AM54 °FScattered clouds.8 mph94%29.95 "HgN/A
5:20 AM52 °FPassing clouds.6 mph94%29.95 "HgN/A
4:50 AM52 °FPassing clouds.3 mph94%29.95 "HgN/A
4:20 AM52 °FPassing clouds.5 mph94%29.95 "HgN/A
3:50 AM52 °FClear.7 mph94%29.95 "Hg10 mi
3:20 AM52 °FClear.6 mph94%29.95 "Hg10 mi
2:50 AM52 °FClear.3 mph94%29.98 "Hg10 mi
2:20 AM52 °FClear.5 mph94%29.98 "Hg10 mi
Weather by CustomWeather, © 2016

See weather overviewHow to use our weather pages